Location: Chateh
(58.6667°N, 118.6000°W)
Time: 07:57:09
(UTC+00:00)

BlueWalker 3 - Visible Passes

Search period start: 08 June 2023 00:00
Search period end: 18 June 2023 00:00
Orbit: 494 x 513 km, 53.2° (Epoch: 07 June)

Date Brightness Start Highest point End Pass type
(mag) Time Alt. Az. Time Alt. Az. Time Alt. Az.
08 Jun 3.8 07:12:07 10° WSW 07:14:19 15° SW 07:16:22 11° S visible
09 Jun 3.9 06:51:42 10° WSW 06:53:52 14° SW 06:56:01 10° S visible
10 Jun 4.0 06:31:17 10° WSW 06:33:23 14° SW 06:35:30 10° S visible
